Tracking 20942 objects as of 15-Jul-2020
HD Live streaming from Space Station
objects crossing your sky now

MINOTAUR 4 R/B

Track MINOTAUR 4 R/B now!
10-day predictions


NORAD ID: 37169
Int'l Code: 2010-048B
Perigee: 483.7 km
Apogee: 492.5 km
Inclination: 97.9 °
Period: 94.2 minutes
Semi major axis: 6859 km
RCS: Unknown
Launch date: September 26, 2010
Source: United States (US)
Launch site: AIR FORCE WESTERN TEST RANGE (AFWTR)

Note: This is a ROCKET BODY
aabbcc
Your satellite tracking list
Your tracking list is empty




NASA's NSSDC Master Catalog

Two Line Element Set (TLE):
1 37169U 10048B   20196.27921610  .00000434  00000-0  18787-4 0  9991
2 37169  97.9202 307.0450 0006370 151.9744 208.1838 15.28277588543963
Source of the keplerian elements: McCants